sat.trackr.live / text

‹ back to catalog

STARLINK-30145

NORAD 57496 · 2023-113B

PAYLOAD ACTIVE UNKNOWN

§ Identity

Operator
Country
US
Launch date
2023-08-07
Launch site
AFETR
Launch vehicle
Mass (kg)
RCS (m²)

Purposes: comms

External: N2YO · Heavens-Above · Gunter

§ Orbital elements

Epoch: 2026-09-20T22:00:03.000096Z

Period
94.27 min
Inclination
43.0031°
Eccentricity
0.0001739
Mean motion
15.27593303 rev/d
Perigee alt
481.8 km
Apogee alt
484.2 km
Semi-major
6,861.1 km
B*
-8.6223e-4
RAAN
353.5506°
Arg perigee
266.9687°
Mean anomaly
49.8053°
Rev number
585

§ Raw data

STARLINK-301451 57496U 23113B   26263.91670139 -.00023923  00000+0 -86223-3 0  99902 57496  43.0031 353.5506 0001739 266.9687  49.8053 15.27593303  5850

JSON: /api/v1/satellites/57496 · /tle

For live sub-satellite position, see the globe view (requires WebGL).

§ Visibility from observer

Set your observer location to see the next 7 days of passes ≥ 10°. The values pass through the URL so the page stays shareable.

No JS? Fill the form by hand. The geolocation button needs JavaScript.